Overview Statistics Trail Chart Weather Telemetry Raw packets
 

This is the latest recevied weather packets stored in our database for station/object N0KWA. If no packets are shown the sender has not sent any weather packets the latest 10 day(s).

<< 45 46 47 48 49 50 51 >>
Time Temp. Humidity Pressure Rain* Wind** Luminosity Snow
1788130064 29.44° C 83% 1017.5 hPa 0 mm - 11 W/m² -
1788129759 29.44° C 82% 1017.4 hPa 0 mm - 12 W/m² -
1788129456 29.44° C 82% 1017.4 hPa 0 mm - 14 W/m² -
1788129151 30° C 82% 1017.3 hPa 0 mm - 14 W/m² -
1788128846 30° C 84% 1017.1 hPa 0 mm - 13 W/m² -
1788128541 30° C 83% 1017.3 hPa 0 mm - 19 W/m² -
1788128231 30° C 84% 1017.2 hPa 0 mm - 19 W/m² -
1788127928 30° C 83% 1017.2 hPa 0 mm - 14 W/m² -
1788127623 30° C 82% 1017.5 hPa 0 mm - 16 W/m² -
1788127337 30° C 81% 1017.2 hPa 0 mm - 16 W/m² -
1788127021 30° C 81% 1017.4 hPa 0 mm - 16 W/m² -
1788126721 30° C 82% 1017.4 hPa 0 mm - 19 W/m² -
1788126417 30° C 82% 1017.4 hPa 0 mm - 19 W/m² -
1788126111 30° C 82% 1017.3 hPa 0 mm - 19 W/m² -
1788125810 30° C 81% 1017.2 hPa 0 mm - 19 W/m² -
1788125506 30° C 80% 1017.5 hPa 0 mm - 23 W/m² -
1788125202 30.56° C 78% 1017.4 hPa 0 mm - 23 W/m² -
1788124896 30.56° C 80% 1017.4 hPa 0 mm - 25 W/m² -
1788124592 30.56° C 80% 1017.5 hPa 0 mm - 26 W/m² -
1788124291 30.56° C 79% 1017.5 hPa 0 mm - 245 W/m² -
1788123986 31.11° C 80% 1017.4 hPa 0 mm - 58 W/m² -
1788123685 31.11° C 77% 1017.4 hPa 0 mm - 23 W/m² -
1788123382 31.11° C 78% 1017.2 hPa 0 mm - 39 W/m² -
1788123079 30.56° C 77% 1017.4 hPa 0 mm - 32 W/m² -
1788122778 30.56° C 79% 1017.6 hPa 0 mm - 51 W/m² -

* Rain latest hour (hover to see other rain measurements)
** Current wind speed in m/s (hover to see current wind gust speed)